Clearfield, PA

2:34 AM EDT on March 24, 2017 (GMT -0400)
Clearfield-Lawrence

Weather History for KFIG - January, 2013

Change the Weather History Date:

Tuesday, January 8, 2013

  Actual Average (KDUJ) Record (KDUJ)
Temperature  
Mean Temperature 26 °F -  
Max Temperature 41 °F 25 °F 66 °F (2008)
Min Temperature 12 °F 11 °F -8 °F (1968)
Degree Days  
Heating Degree Days 38    
Moisture  
Dew Point 15 °F    
Average Humidity 82    
Maximum Humidity 93    
Minimum Humidity 49    
Precipitation  
Precipitation 0.00 in - - ()
Sea Level Pressure  
Sea Level Pressure 30.33 in    
Wind  
Wind Speed 2 mph (WSW)    
Max Wind Speed 8 mph    
Max Gust Speed -    
Visibility 4 miles    
Events Fog    
Averages and records for this station are not official NWS values.
T = Trace of Precipitation, MM = Missing Value Source: NWS Daily Summary

Daily Weather History Graph

Daily Weather History Graph

Search for Another Location

Airport or City:

Trip Planner

Search our weather history database for the weather conditions in past years. The results will help you decide how hot, cold, wet, or windy it might be!

Date:

Astronomy

Jan. 08, 2013 Rise Set
Actual Time 7:38 AM EST 5:02 PM EST
Civil Twilight 7:07 AM EST 5:33 PM EST
Nautical Twilight 6:33 AM EST 6:07 PM EST
Astronomical Twilight 6:00 AM EST 6:40 PM EST
Moon 4:09 AM EST (1/8) 2:03 PM EST (1/8)
Length of Visible Light 10h 25m
Length of Day
9h 24m
Waning Crescent, 14% of the Moon is Illuminated
Jan 8
Waning Crescent
Jan 11
New
Jan 18
First Quarter
Jan 26
Full
Feb 3
Last Quarter

Hourly Weather History & Observations

Time (EST) Temp. Windchill Dew Point Humidity Pressure Visibility Wind Dir Wind Speed Gust Speed Precip Events Conditions
12:54 AM 19.0 °F - 16.0 °F 88% 30.31 in 5.0 mi Calm Calm - N/A   Clear
1:54 AM 17.1 °F 8.7 °F 14.0 °F 88% 30.33 in 6.0 mi North 5.8 mph - N/A   Clear
2:54 AM 18.0 °F - 16.0 °F 92% 30.33 in 3.0 mi Calm Calm - N/A   Clear
3:51 AM 14.0 °F 6.5 °F 12.2 °F 93% 30.26 in 4.0 mi NNW 4.6 mph - N/A   Scattered Clouds
3:54 AM 15.1 °F 9.4 °F 12.0 °F 88% 30.33 in 1.0 mi NNW 3.5 mph - N/A   Mist
4:01 AM 15.8 °F 7.2 °F 12.2 °F 86% 30.26 in 0.5 mi NNW 5.8 mph - N/A Fog Light Freezing Fog
4:07 AM 15.8 °F 7.2 °F 12.2 °F 86% 30.26 in 3.0 mi NNW 5.8 mph - N/A   Mostly Cloudy
4:28 AM 15.8 °F - 10.4 °F 79% 30.26 in 7.0 mi Calm Calm - N/A   Scattered Clouds
4:54 AM 14.0 °F - 12.0 °F 92% 30.33 in 1.8 mi Calm Calm - N/A   Partly Cloudy
4:59 AM 15.8 °F - 12.2 °F 86% 30.26 in 3.0 mi Calm Calm - N/A   Clear
5:09 AM 15.8 °F - 12.2 °F 86% 30.26 in 2.5 mi Calm Calm - N/A   Clear
5:12 AM 14.0 °F - 12.2 °F 93% 30.26 in 4.0 mi Calm Calm - N/A   Partly Cloudy
5:27 AM 14.0 °F - 12.2 °F 93% 30.27 in 3.0 mi Calm Calm - N/A   Mostly Cloudy
5:32 AM 14.0 °F - 12.2 °F 93% 30.27 in 1.5 mi Calm Calm - N/A   Mostly Cloudy
5:36 AM 14.0 °F 8.2 °F 12.2 °F 93% 30.27 in 0.2 mi South 3.5 mph - N/A Fog Light Freezing Fog
5:54 AM 14.0 °F - 12.0 °F 92% 30.34 in 0.2 mi Calm Calm - N/A Fog Light Freezing Fog
6:54 AM 12.9 °F 6.9 °F 10.0 °F 88% 30.36 in 0.5 mi West 3.5 mph - N/A Fog Light Freezing Fog
7:08 AM 15.8 °F - 12.2 °F 86% 30.29 in 1.0 mi Calm Calm - N/A   Mist
7:17 AM 15.8 °F - 10.4 °F 79% 30.29 in 3.0 mi Calm Calm - N/A   Haze
7:38 AM 14.0 °F - 10.4 °F 86% 30.30 in 0.8 mi Calm Calm - N/A   Overcast
7:45 AM 12.2 °F - 10.4 °F 92% 30.30 in 1.8 mi Calm Calm - N/A   Overcast
7:54 AM 14.0 °F - 10.0 °F 84% 30.37 in 2.5 mi Calm Calm - N/A   Overcast
8:30 AM 14.0 °F - 10.4 °F 86% 30.31 in 3.0 mi Calm Calm - N/A   Overcast
8:35 AM 15.8 °F 10.2 °F 10.4 °F 79% 30.31 in 1.8 mi SSW 3.5 mph - N/A   Overcast
8:45 AM 15.8 °F 10.2 °F 12.2 °F 86% 30.30 in 0.2 mi SSW 3.5 mph - N/A Fog Light Freezing Fog
8:54 AM 16.0 °F - 14.0 °F 92% 30.38 in 0.2 mi Calm Calm - N/A Fog Light Freezing Fog
9:11 AM 14.0 °F - 10.4 °F 86% 30.31 in 1.0 mi Calm Calm - N/A   Mist
9:28 AM 15.8 °F - 12.2 °F 86% 30.31 in 1.2 mi Calm Calm - N/A   Scattered Clouds
9:38 AM 17.6 °F - 14.0 °F 86% 30.31 in 2.0 mi Calm Calm - N/A   Mostly Cloudy
9:49 AM 19.4 °F - 17.6 °F 93% 30.31 in 3.0 mi Calm Calm - N/A   Scattered Clouds
9:54 AM 19.0 °F - 17.1 °F 92% 30.39 in 3.0 mi Calm Calm - N/A   Scattered Clouds
10:06 AM 19.4 °F - 17.6 °F 93% 30.32 in 2.5 mi Calm Calm - N/A   Partly Cloudy
10:17 AM 21.2 °F - 19.4 °F 93% 30.31 in 3.0 mi Calm Calm - N/A   Clear
10:54 AM 23.0 °F - 21.0 °F 92% 30.39 in 5.0 mi Calm Calm - N/A   Clear
11:54 AM 28.0 °F 20.8 °F 21.0 °F 75% 30.37 in 10.0 mi SSW 6.9 mph - N/A   Clear
12:54 PM 34.0 °F 28.0 °F 21.9 °F 61% 30.35 in 10.0 mi SSW 6.9 mph - N/A   Clear
1:54 PM 37.0 °F 31.6 °F 23.0 °F 57% 30.34 in 10.0 mi SSW 6.9 mph - N/A   Clear
2:54 PM 39.9 °F 34.5 °F 23.0 °F 51% 30.35 in 10.0 mi SSW 8.1 mph - N/A   Clear
3:54 PM 41.0 °F 37.1 °F 23.0 °F 49% 30.37 in 10.0 mi SSW 5.8 mph - N/A   Clear
4:54 PM 39.0 °F 36.8 °F 21.9 °F 50% 30.37 in 10.0 mi SW 3.5 mph - N/A   Clear
5:54 PM 37.9 °F - 21.9 °F 53% 30.38 in 10.0 mi Calm Calm - N/A   Clear
6:54 PM 35.1 °F - 21.9 °F 59% 30.39 in 10.0 mi Calm Calm - N/A   Clear
7:54 PM 30.0 °F - 21.9 °F 72% 30.40 in 10.0 mi Calm Calm - N/A   Clear
8:54 PM 28.9 °F - 21.9 °F 75% 30.40 in 10.0 mi Calm Calm - N/A   Clear
9:54 PM 28.0 °F - 23.0 °F 81% 30.40 in 10.0 mi Calm Calm - N/A   Clear
11:54 PM 24.1 °F 19.7 °F 21.9 °F 91% 30.37 in 10.0 mi North 3.5 mph - N/A   Clear